Evergreen, AL

8:21 AM CDT on June 25, 2017 (GMT -0500)
Middleton

Weather History for KGZH - June, 2013

Change the Weather History Date:

Saturday, June 22, 2013

  Actual Average (KPRN) Record (KPRN)
Temperature  
Mean Temperature 79 °F -  
Max Temperature 91 °F 90 °F 101 °F (1930)
Min Temperature 68 °F 67 °F 58 °F (1992)
Cooling Degree Days 14    
Growing Degree Days 29 (Base 50)    
Moisture  
Dew Point 69 °F    
Average Humidity 70    
Maximum Humidity 91    
Minimum Humidity 48    
Precipitation  
Precipitation 0.00 in - - ()
Sea Level Pressure  
Sea Level Pressure 30.10 in    
Wind  
Wind Speed 3 mph (ENE)    
Max Wind Speed 8 mph    
Max Gust Speed -    
Visibility 9 miles    
Events      
Averages and records for this station are not official NWS values.
T = Trace of Precipitation, MM = Missing Value Source: NWS Daily Summary

Daily Weather History Graph

Daily Weather History Graph

Search for Another Location

Airport or City:

Trip Planner

Search our weather history database for the weather conditions in past years. The results will help you decide how hot, cold, wet, or windy it might be!

Date:

Astronomy

Jun. 22, 2013 Rise Set
Actual Time 5:44 AM CDT 7:56 PM CDT
Civil Twilight 5:16 AM CDT 8:24 PM CDT
Nautical Twilight 4:42 AM CDT 8:58 PM CDT
Astronomical Twilight 4:05 AM CDT 9:35 PM CDT
Moon 7:14 PM CDT (6/22) 4:52 AM CDT (6/22)
Length of Visible Light 15h 07m
Length of Day
14h 11m
Waxing Gibbous, 99% of the Moon is Illuminated
Jun 22
Waxing Gibbous
Jun 23
Full
Jun 29
Last Quarter
Jul 8
New
Jul 15
First Quarter

Hourly Weather History & Observations

Time (CDT) Temp. Heat Index Dew Point Humidity Pressure Visibility Wind Dir Wind Speed Gust Speed Precip Events Conditions
12:53 AM 72.0 °F - 69.1 °F 91% 30.12 in 6.0 mi Calm Calm - N/A   Partly Cloudy
1:53 AM 70.0 °F - 66.9 °F 90% 30.10 in 6.0 mi Calm Calm - N/A   Clear
2:53 AM 70.0 °F - 66.0 °F 87% 30.09 in 10.0 mi NNE 3.5 mph - N/A   Clear
3:53 AM 69.1 °F - 66.0 °F 90% 30.09 in 7.0 mi Calm Calm - N/A   Clear
5:53 AM 68.0 °F - 64.9 °F 90% 30.12 in 5.0 mi Calm Calm - N/A   Clear
6:53 AM 72.0 °F - 66.9 °F 84% 30.14 in 10.0 mi Calm Calm - N/A   Clear
7:53 AM 75.9 °F - 69.1 °F 79% 30.15 in 10.0 mi Variable 4.6 mph - N/A   Clear
8:53 AM 79.0 °F - 70.0 °F 74% 30.15 in 10.0 mi East 4.6 mph - N/A   Clear
9:53 AM 82.9 °F 86.5 °F 69.1 °F 63% 30.15 in 10.0 mi ESE 8.1 mph - N/A   Clear
10:53 AM 86.0 °F 90.7 °F 70.0 °F 59% 30.16 in 10.0 mi ENE 8.1 mph - N/A   Partly Cloudy
11:53 AM 86.0 °F 90.7 °F 70.0 °F 59% 30.15 in 10.0 mi East 4.6 mph - N/A   Mostly Cloudy
12:53 PM 87.1 °F 90.6 °F 68.0 °F 53% 30.14 in 10.0 mi East 6.9 mph - N/A   Mostly Cloudy
1:53 PM 89.1 °F 93.7 °F 69.1 °F 52% 30.12 in 10.0 mi East 6.9 mph - N/A   Partly Cloudy
2:53 PM 90.0 °F 94.5 °F 69.1 °F 50% 30.10 in 10.0 mi NE 6.9 mph - N/A   Partly Cloudy
3:53 PM 89.1 °F 92.1 °F 66.9 °F 48% 30.08 in 10.0 mi Variable 6.9 mph - N/A   Clear
4:53 PM 90.0 °F 93.6 °F 68.0 °F 48% 30.07 in 10.0 mi Calm Calm - N/A   Clear
5:53 PM 90.0 °F 94.5 °F 69.1 °F 50% 30.04 in 10.0 mi NE 5.8 mph - N/A   Scattered Clouds
6:53 PM 87.1 °F 91.3 °F 69.1 °F 55% 30.04 in 10.0 mi NE 4.6 mph - N/A   Clear
7:53 PM 82.0 °F 85.9 °F 70.0 °F 67% 30.04 in 10.0 mi NNE 3.5 mph - N/A   Clear
8:53 PM 79.0 °F - 72.0 °F 79% 30.05 in 10.0 mi Calm Calm - N/A   Mostly Cloudy
9:53 PM 79.0 °F - 70.0 °F 74% 30.08 in 10.0 mi East 3.5 mph - N/A   Partly Cloudy
10:53 PM 78.1 °F - 71.1 °F 79% 30.10 in 10.0 mi ESE 3.5 mph - N/A   Mostly Cloudy
11:53 PM 77.0 °F - 71.1 °F 82% 30.10 in 10.0 mi SE 3.5 mph - N/A   Clear